KN4CI-1 Weather Reports


Display with metric or nautical units.
time (UTC)temp
F
wind
direction
speed
MPH
gust
MPH
rain 1hr
in
rain 24hr
in
rain mn
in
humidity
%
barometer
mb
20260905220041 94 337 0.0 0.0 0.00 0.00 0.00 11 1011.6
20260905211027 96 337 0.0 0.0 0.00 0.00 0.00 11 1011.6
20260905205521 96 318 0.0 0.0 0.00 0.00 0.00 11 1012.6
20260905204518 96 64 0.0 0.0 0.00 0.00 0.00 11 1012.6
20260905203012 98 110 0.0 0.0 0.00 0.00 0.00 10 1012.6
20260905200001 98 59 0.0 0.0 0.00 0.00 0.00 10 1012.6
20260905193959 99 326 0.0 0.0 0.00 0.00 0.00 10 1013.6
20260905184448 97 341 0.0 0.0 0.00 0.00 0.00 11 1013.6
20260905183948 97 318 0.0 0.0 0.00 0.00 0.00 11 1013.6
20260905183443 96 166 0.0 0.0 0.00 0.00 0.00 11 1013.6
20260905181939 96 351 0.0 0.0 0.00 0.00 0.00 11 1014.6
20260905180938 96 37 0.0 0.0 0.00 0.00 0.00 11 1014.6
20260905173932 95 347 0.0 0.0 0.00 0.00 0.00 11 1014.6
20260905172430 94 9 0.0 0.0 0.00 0.00 0.00 11 1014.6
20260905135320 80 53 0.0 0.0 0.00 0.00 0.00 30 1015.6
20260905133815 79 53 0.0 0.0 0.00 0.00 0.00 31 1015.6
20260905124255 74 53 0.0 0.0 0.00 0.00 0.00 33 1015.6
20260905123755 74 53 0.0 0.0 0.00 0.00 0.00 33 1015.6
20260905122750 73 53 0.0 0.0 0.00 0.00 0.00 33 1015.6
20260905122251 73 53 0.0 0.0 0.00 0.00 0.00 33 1015.6
20260905121246 72 53 0.0 0.0 0.00 0.00 0.00 33 1015.6
20260905120746 72 53 0.0 0.0 0.00 0.00 0.00 33 1015.6
20260905115243 71 53 0.0 0.0 0.00 0.00 0.00 33 1015.6
20260905111218 71 53 0.0 0.0 0.00 0.00 0.00 33 1014.6
20260905105213 71 53 0.0 0.0 0.00 0.00 0.00 32 1014.6
20260905101654 72 53 0.0 0.0 0.00 0.00 0.00 32 1014.6
20260905095653 72 53 0.0 0.0 0.00 0.00 0.00 32 1014.6
20260905095153 72 53 0.0 0.0 0.00 0.00 0.00 32 1014.6
20260905094152 72 53 0.0 0.0 0.00 0.00 0.00 32 1014.6
20260905092647 72 53 0.0 0.0 0.00 0.00 0.00 32 1014.6
20260905092147 72 53 0.0 0.0 0.00 0.00 0.00 32 1014.6
20260905091143 72 53 0.0 0.0 0.00 0.00 0.00 32 1014.6
20260905085141 72 53 0.0 0.0 0.00 0.00 0.00 32 1014.6
20260905084139 72 53 0.0 0.0 0.00 0.00 0.00 32 1014.6
20260905083638 72 53 0.0 0.0 0.00 0.00 0.00 32 1014.6
20260905083129 72 53 0.0 0.0 0.00 0.00 0.00 32 1014.6
20260905082630 72 53 0.0 0.0 0.00 0.00 0.00 32 1014.6
20260905081622 72 53 0.0 0.0 0.00 0.00 0.00 31 1014.6
20260905081304 72 53 0.0 0.0 0.00 0.00 0.00 31 1014.6
20260905081123 72 53 0.0 0.0 0.00 0.00 0.00 31 1014.6
20260905075621 73 53 0.0 0.0 0.00 0.00 0.00 31 1014.6
20260905075121 73 53 0.0 0.0 0.00 0.00 0.00 31 1014.6
20260905074617 73 53 0.0 0.0 0.00 0.00 0.00 31 1014.6
20260905074117 73 53 0.0 0.0 0.00 0.00 0.00 31 1014.6
20260905073617 73 53 0.0 0.0 0.00 0.00 0.00 31 1014.6
20260905073113 73 53 0.0 0.0 0.00 0.00 0.00 31 1014.6
20260905072613 73 53 0.0 0.0 0.00 0.00 0.00 31 1014.6
20260905071606 73 53 0.0 0.0 0.00 0.00 0.00 31 1014.6
20260905071104 73 53 0.0 0.0 0.00 0.00 0.00 31 1014.6
20260905070604 73 53 0.0 0.0 0.00 0.00 0.00 31 1014.6
20260905070100 73 53 0.0 0.0 0.00 0.00 0.00 31 1014.6
20260905065100 73 53 0.0 0.0 0.00 0.00 0.00 31 1014.6
20260905063045 74 53 0.0 0.0 0.00 0.00 0.00 30 1014.6
20260905062545 74 53 0.0 0.0 0.00 0.00 0.00 30 1014.6
20260905062045 74 53 0.0 0.0 0.00 0.00 0.00 30 1014.6
20260905061540 74 53 0.0 0.0 0.00 0.00 0.00 30 1014.6
20260905061040 74 53 0.0 0.0 0.00 0.00 0.00 30 1014.6
20260905060540 74 53 0.0 0.0 0.00 0.00 0.00 29 1014.6
20260905060036 74 53 0.0 0.0 0.00 0.00 0.00 29 1014.6
20260905055536 74 53 0.0 0.0 0.00 0.00 0.00 29 1014.6
20260905055035 74 53 0.0 0.0 0.00 0.00 0.00 28 1014.6
20260905054527 74 53 0.0 0.0 0.00 0.00 0.00 28 1014.6
20260905053018 74 53 0.0 0.0 0.00 0.00 0.00 28 1014.6
20260905052019 74 53 0.0 0.0 0.00 0.00 0.00 28 1014.6
20260905051512 75 53 0.0 0.0 0.00 0.00 0.00 28 1014.6
20260905051012 75 53 0.0 0.0 0.00 0.00 0.00 28 1014.6
20260905050513 75 53 0.0 0.0 0.00 0.00 0.00 27 1014.6
20260905045507 75 53 0.0 0.0 0.00 0.00 0.00 28 1014.6
20260905044504 75 53 0.0 0.0 0.00 0.00 0.00 28 1014.6
20260905044004 75 53 0.0 0.0 0.00 0.00 0.00 27 1014.6
20260905043504 75 53 0.0 0.0 0.00 0.00 0.00 26 1014.6
20260905042957 75 53 0.0 0.0 0.00 0.00 0.00 26 1014.6
20260905041955 76 53 0.0 0.0 0.00 0.00 0.00 25 1014.6
20260905040951 76 53 0.0 0.0 0.00 0.00 0.00 25 1014.6
20260905040451 76 53 0.0 0.0 0.00 0.00 0.00 25 1014.6
20260905035438 76 53 0.0 0.0 0.00 0.00 0.00 24 1014.6
20260905034935 76 53 0.0 0.0 0.00 0.00 0.00 23 1014.6
20260905033430 76 53 0.0 0.0 0.00 0.00 0.00 23 1015.6
20260905032924 76 53 0.0 0.0 0.00 0.00 0.00 23 1015.6
20260905032425 77 53 0.0 0.0 0.00 0.00 0.00 22 1015.6
20260905031416 77 53 0.0 0.0 0.00 0.00 0.00 22 1015.6
20260905025949 77 53 0.0 0.0 0.00 0.00 0.00 21 1015.6
20260905025907 77 53 0.0 0.0 0.00 0.00 0.00 21 1015.6
20260905024907 78 53 0.0 0.0 0.00 0.00 0.00 21 1015.6
20260905022854 78 53 0.0 0.0 0.00 0.00 0.00 21 1015.6
20260905021854 78 53 0.0 0.0 0.00 0.00 0.00 20 1015.6
20260905020930 78 53 0.0 0.0 0.00 0.00 0.00 20 1015.6
20260905020850 78 53 0.0 0.0 0.00 0.00 0.00 20 1015.6
20260905020350 78 53 0.0 0.0 0.00 0.00 0.00 20 1015.6
20260905015846 78 53 0.0 0.0 0.00 0.00 0.00 20 1015.6
20260905015346 79 53 0.0 0.0 0.00 0.00 0.00 20 1015.6
20260905014845 79 53 0.0 0.0 0.00 0.00 0.00 20 1015.6
20260905014341 79 53 0.0 0.0 0.00 0.00 0.00 20 1015.6
20260905013841 79 53 0.0 0.0 0.00 0.00 0.00 20 1015.6
20260905013342 80 53 0.0 0.0 0.00 0.00 0.00 19 1015.6
20260905012337 80 53 0.0 0.0 0.00 0.00 0.00 17 1015.6
20260905011332 80 53 0.0 0.0 0.00 0.00 0.00 17 1015.6
20260905011051 80 53 0.0 0.0 0.00 0.00 0.00 17 1015.6
20260905010832 80 53 0.0 0.0 0.00 0.00 0.00 17 1015.6
20260905005826 81 53 0.0 0.0 0.00 0.00 0.00 17 1015.6
20260905005326 81 53 0.0 0.0 0.00 0.00 0.00 17 1015.6
20260905004824 81 53 0.0 0.0 0.00 0.00 0.00 16 1015.6
20260905003822 82 53 0.0 0.0 0.00 0.00 0.00 14 1015.6
20260905003323 82 53 0.0 0.0 0.00 0.00 0.00 14 1015.6
20260905002320 83 53 0.0 0.0 0.00 0.00 0.00 14 1014.6
20260905001821 84 53 0.0 0.0 0.00 0.00 0.00 13 1014.6
20260905001315 84 53 0.0 0.0 0.00 0.00 0.00 13 1014.6
20260905000815 85 53 0.0 0.0 0.00 0.00 0.00 13 1014.6
20260904235808 85 53 0.0 0.0 0.00 0.00 0.00 13 1014.6
20260904235308 86 53 0.0 0.0 0.00 0.00 0.00 13 1014.6
20260904234808 86 347 0.0 0.0 0.00 0.00 0.00 13 1014.6
20260904233806 86 351 0.0 0.0 0.00 0.00 0.00 13 1014.6
20260904233306 87 313 0.0 0.0 0.00 0.00 0.00 13 1014.6
20260904232306 87 46 0.0 0.0 0.00 0.00 0.00 13 1014.6